• In Uzbekistan
  • List of Countries
  • For 7 days
  • Water Temperature
  • Satellite Maps
  • Weather Map
  • Weather Widgets
  • user-avatar
    Login

    Hourly Weather Ilebo

    Today, 15 July, Sunday

    Time Temperature Precipitation Wind Pressure Humidity
    00:00 +24°C° 0 mm 0 mps 723 mmHg 66%
    01:00 +23°C° 0 mm 0 mps 723 mmHg 72%
    02:00 +23°C° 0 mm 0 mps 723 mmHg 73%
    03:00 +23°C° 0 mm 0 mps 723 mmHg 74%
    04:00 +22°C° 0 mm 0 mps 723 mmHg 75%
    05:00 +25°C° 0.4 mm 1 mps 723 mmHg 75%
    06:00 +25°C° 0.4 mm 1 mps 724 mmHg 76%
    07:00 +25°C° 0 mm 0 mps 724 mmHg 74%
    08:00 +27°C° 0.1 mm 0 mps 724 mmHg 65%
    09:00 +29°C° 0.1 mm 0 mps 725 mmHg 56%
    10:00 +32°C° 0.1 mm 0 mps 725 mmHg 47%
    11:00 +33°C° 0 mm 0 mps 725 mmHg 43%
    12:00 +36°C° 0 mm 1 mps 724 mmHg 39%
    13:00 +34°C° 0 mm 1 mps 724 mmHg 42%
    14:00 +34°C° 0.2 mm 2 mps 723 mmHg 48%
    15:00 +32°C° 0.2 mm 2 mps 723 mmHg 54%
    16:00 +30°C° 0.2 mm 2 mps 723 mmHg 60%
    17:00 +29°C° 1.1 mm 2 mps 723 mmHg 67%
    18:00 +27°C° 1.1 mm 2 mps 723 mmHg 73%
    19:00 +26°C° 1.1 mm 2 mps 723 mmHg 80%
    20:00 +25°C° 1 mm 2 mps 723 mmHg 84%
    21:00 +25°C° 1 mm 1 mps 723 mmHg 89%
    22:00 +24°C° 1 mm 1 mps 724 mmHg 93%
    23:00 +24°C° 0 mm 1 mps 724 mmHg 94%

    Tomorrow, 16 July, Monday

    Time Temperature Precipitation Wind Pressure Humidity
    00:00 +24°C° 0 mm 1 mps 724 mmHg 94%
    01:00 +23°C° 0 mm 1 mps 724 mmHg 94%
    02:00 +23°C° 0.1 mm 1 mps 724 mmHg 95%
    03:00 +23°C° 0.1 mm 1 mps 724 mmHg 96%
    04:00 +23°C° 0.1 mm 1 mps 724 mmHg 97%
    05:00 +24°C° 0 mm 1 mps 724 mmHg 95%
    06:00 +24°C° 0 mm 1 mps 724 mmHg 92%
    07:00 +23°C° 0 mm 0 mps 724 mmHg 90%
    08:00 +28°C° 0.4 mm 1 mps 725 mmHg 79%
    09:00 +30°C° 0.4 mm 1 mps 725 mmHg 67%
    10:00 +33°C° 0.4 mm 1 mps 725 mmHg 55%
    11:00 +34°C° 0 mm 1 mps 725 mmHg 48%
    12:00 +36°C° 0 mm 1 mps 724 mmHg 41%
    13:00 +39°C° 0 mm 1 mps 724 mmHg 35%
    14:00 +36°C° 0 mm 1 mps 723 mmHg 39%
    15:00 +35°C° 0 mm 1 mps 722 mmHg 43%
    16:00 +33°C° 0 mm 1 mps 722 mmHg 47%
    17:00 +32°C° 0 mm 1 mps 722 mmHg 53%
    18:00 +30°C° 0 mm 1 mps 722 mmHg 58%
    19:00 +28°C° 0 mm 2 mps 723 mmHg 64%
    20:00 +27°C° 0.6 mm 1 mps 723 mmHg 70%
    21:00 +27°C° 0.6 mm 1 mps 723 mmHg 75%
    22:00 +26°C° 0.6 mm 1 mps 724 mmHg 81%
    23:00 +25°C° 0 mm 1 mps 724 mmHg 83%

    Day after tomorrow, 17 July, Tuesday

    Time Temperature Precipitation Wind Pressure Humidity
    00:00 +25°C° 0 mm 1 mps 724 mmHg 85%
    01:00 +24°C° 0 mm 1 mps 723 mmHg 87%
    02:00 +24°C° 0 mm 1 mps 723 mmHg 87%
    03:00 +24°C° 0 mm 1 mps 723 mmHg 87%
    04:00 +23°C° 0 mm 1 mps 723 mmHg 88%
    05:00 +22°C° 0 mm 0 mps 723 mmHg 85%
    06:00 +23°C° 0 mm 0 mps 724 mmHg 81%
    07:00 +24°C° 0 mm 0 mps 724 mmHg 78%
    08:00 +27°C° 0 mm 0 mps 725 mmHg 67%
    09:00 +32°C° 0 mm 1 mps 725 mmHg 56%
    10:00 +35°C° 0 mm 1 mps 726 mmHg 45%
    11:00 +37°C° 0 mm 1 mps 725 mmHg 41%
    12:00 +36°C° 0 mm 0 mps 724 mmHg 37%
    13:00 +38°C° 0 mm 0 mps 723 mmHg 33%
    14:00 +36°C° 0 mm 0 mps 723 mmHg 35%
    15:00 +35°C° 0 mm 0 mps 722 mmHg 37%
    16:00 +35°C° 0 mm 1 mps 721 mmHg 40%
    17:00 +34°C° 0 mm 1 mps 722 mmHg 45%
    18:00 +32°C° 0 mm 1 mps 722 mmHg 50%
    19:00 +30°C° 0 mm 1 mps 722 mmHg 55%
    20:00 +29°C° 0.6 mm 1 mps 723 mmHg 63%
    21:00 +27°C° 0.6 mm 1 mps 723 mmHg 71%
    22:00 +26°C° 0.6 mm 1 mps 723 mmHg 79%
    23:00 +26°C° 0.2 mm 1 mps 723 mmHg 81%

    18 July, Wednesday

    Time Temperature Precipitation Wind Pressure Humidity
    00:00 +25°C° 0.2 mm 1 mps 723 mmHg 82%
    01:00 +25°C° 0.2 mm 1 mps 723 mmHg 84%
    02:00 +25°C° 0.6 mm 1 mps 723 mmHg 85%
    03:00 +25°C° 0.6 mm 1 mps 723 mmHg 86%
    04:00 +25°C° 0.6 mm 1 mps 723 mmHg 87%
    05:00 +25°C° 1.2 mm 1 mps 724 mmHg 87%
    06:00 +24°C° 1.2 mm 0 mps 724 mmHg 86%
    07:00 +24°C° 1.2 mm 0 mps 725 mmHg 85%
    08:00 +28°C° 0.8 mm 1 mps 725 mmHg 77%
    09:00 +30°C° 0.8 mm 2 mps 725 mmHg 69%
    10:00 +31°C° 0.8 mm 2 mps 725 mmHg 61%
    11:00 +34°C° 0 mm 2 mps 725 mmHg 56%
    12:00 +35°C° 0 mm 2 mps 724 mmHg 51%
    13:00 +36°C° 0 mm 2 mps 723 mmHg 45%
    14:00 +34°C° 0.3 mm 2 mps 723 mmHg 54%
    15:00 +31°C° 0.3 mm 2 mps 722 mmHg 62%
    16:00 +29°C° 0.3 mm 3 mps 722 mmHg 70%
    17:00 +28°C° 0.7 mm 2 mps 722 mmHg 77%
    18:00 +27°C° 0.7 mm 2 mps 722 mmHg 83%
    19:00 +25°C° 0.7 mm 1 mps 723 mmHg 89%
    20:00 +25°C° 0.2 mm 1 mps 723 mmHg 90%
    21:00 +25°C° 0.2 mm 1 mps 724 mmHg 91%
    22:00 +24°C° 0.2 mm 1 mps 724 mmHg 93%
    23:00 +24°C° 0 mm 1 mps 724 mmHg 93%

    19 July, Thursday

    Time Temperature Precipitation Wind Pressure Humidity
    00:00 +24°C° 0 mm 1 mps 723 mmHg 94%
    01:00 +24°C° 0 mm 1 mps 723 mmHg 94%
    02:00 +24°C° 0.7 mm 1 mps 723 mmHg 94%
    03:00 +24°C° 0.7 mm 1 mps 723 mmHg 94%
    04:00 +22°C° 0.7 mm 0 mps 723 mmHg 93%
    05:00 +24°C° 0.8 mm 1 mps 724 mmHg 93%
    06:00 +24°C° 0.8 mm 1 mps 724 mmHg 93%
    07:00 +24°C° 0.8 mm 1 mps 725 mmHg 93%
    08:00 +25°C° 0.3 mm 1 mps 725 mmHg 90%
    09:00 +26°C° 0.3 mm 2 mps 725 mmHg 86%
    10:00 +26°C° 0.3 mm 2 mps 725 mmHg 82%
    11:00 +28°C° 0 mm 2 mps 724 mmHg 77%
    12:00 +29°C° 0 mm 2 mps 723 mmHg 71%
    13:00 +30°C° 0 mm 2 mps 723 mmHg 65%
    14:00 +30°C° 0 mm 2 mps 722 mmHg 64%
    15:00 +30°C° 0 mm 2 mps 722 mmHg 62%
    16:00 +31°C° 0 mm 2 mps 722 mmHg 60%
    17:00 +29°C° 0 mm 1 mps 722 mmHg 66%
    18:00 +28°C° 0 mm 1 mps 722 mmHg 72%
    19:00 +26°C° 0 mm 1 mps 723 mmHg 78%
    20:00 +26°C° 0.1 mm 1 mps 723 mmHg 81%
    21:00 +25°C° 0.1 mm 1 mps 723 mmHg 84%
    22:00 +22°C° 0.1 mm 0 mps 724 mmHg 88%
    23:00 +22°C° 0.1 mm 0 mps 723 mmHg 89%

    20 July, Friday

    Time Temperature Precipitation Wind Pressure Humidity
    00:00 +22°C° 0.1 mm 0 mps 723 mmHg 91%
    01:00 +22°C° 0.1 mm 0 mps 722 mmHg 93%
    02:00 +22°C° 0.2 mm 0 mps 723 mmHg 93%
    03:00 +22°C° 0.2 mm 0 mps 723 mmHg 94%
    04:00 +21°C° 0.2 mm 0 mps 723 mmHg 94%
    05:00 +22°C° 0.3 mm 0 mps 723 mmHg 94%
    06:00 +24°C° 0.3 mm 1 mps 724 mmHg 94%
    07:00 +24°C° 0.3 mm 1 mps 724 mmHg 94%
    08:00 +26°C° 0.3 mm 1 mps 725 mmHg 89%
    09:00 +27°C° 0.3 mm 1 mps 725 mmHg 84%
    10:00 +28°C° 0.3 mm 1 mps 725 mmHg 79%
    11:00 +29°C° 0.2 mm 1 mps 724 mmHg 72%
    12:00 +30°C° 0.2 mm 1 mps 723 mmHg 66%
    13:00 +31°C° 0.2 mm 1 mps 723 mmHg 59%
    14:00 +31°C° 0 mm 1 mps 722 mmHg 58%
    15:00 +31°C° 0 mm 1 mps 722 mmHg 57%
    16:00 +31°C° 0 mm 1 mps 722 mmHg 56%
    17:00 +29°C° 0 mm 1 mps 722 mmHg 62%
    18:00 +28°C° 0 mm 1 mps 722 mmHg 68%
    19:00 +26°C° 0 mm 1 mps 723 mmHg 74%
    20:00 +26°C° 0 mm 1 mps 723 mmHg 77%
    21:00 +25°C° 0 mm 1 mps 723 mmHg 80%
    22:00 +25°C° 0 mm 1 mps 724 mmHg 83%
    23:00 +24°C° 0.1 mm 1 mps 723 mmHg 86%
    Show more